Location: Unspecified
(0.0000°N, 0.0000°E)
Time: 19:04:01
(UTC+00:00)

Explorer 7 - Pass Details

Date: 19 November 2019
Orbit: 485 x 680 km, 50.3° (Epoch: 06 December)

Event Time Altitude Azimuth Distance (km) Brightness Sun altitude
Rises 21:16:57 0° 233° (SW) 3,021 11.3 -48.7°
Enters shadow 21:17:30 - 234° (SW) 2,820 11.1 -48.8°
Reaches altitude 10° 21:19:29 10° 242° (WSW) 2,110 - -49.3°
Maximum altitude 21:23:55 34° 307° (NW) 1,102 - -50.2°
Drops below altitude 10° 21:28:18 10° 12° (NNE) 2,079 - -51.1°
Sets 21:30:47 0° 21° (NNE) 2,970 - -51.7°
